Weather History for Tekamah, NE

Change the Weather History Date:

Sunday, July 14, 2013

  Actual Average Record
Temperature  
Mean Temperature 78 °F -  
Max Temperature 88 °F 89 °F 105 °F (1954)
Min Temperature 66 °F 65 °F 48 °F (1967)
Cooling Degree Days 13    
Growing Degree Days 28 (Base 50)    
Moisture  
Dew Point 62 °F    
Average Humidity 59    
Maximum Humidity 87    
Minimum Humidity 39    
Precipitation  
Precipitation 0.00 in - - ()
Sea Level Pressure  
Sea Level Pressure 30.03 in    
Wind  
Wind Speed 11 mph (SE)    
Max Wind Speed 15 mph    
Max Gust Speed 21 mph    
Visibility 9 miles    
Events      
Averages and records for this station are not official NWS values.
T = Trace of Precipitation, MM = Missing Value Source: NWS Daily Summary

Daily Weather History Graph

Daily Weather History Graph

Search for Another Location

Airport:

Trip Planner

Search our weather history database for the weather conditions in past years. The results will help you decide how hot, cold, wet, or windy it might be!

Date:

Astronomy

Jul. 14, 2013 Rise Set
Actual Time 6:02 AM CDT 8:58 PM CDT
Civil Twilight 5:29 AM CDT 9:31 PM CDT
Nautical Twilight 4:47 AM CDT 10:13 PM CDT
Astronomical Twilight 3:58 AM CDT 11:02 PM CDT
Moon 12:27 PM CDT (7/14) No Moon Set
Length of Visible Light 16h 01m
Length of Day
14h 55m
Waxing Crescent, 35% of the Moon is Illuminated
Jul 14
Waxing Crescent
Jul 15
First Quarter
Jul 22
Full
Jul 29
Last Quarter
Aug 6
New

Hourly Weather History & Observations

Time (CDT) Temp. Heat Index Dew Point Humidity Pressure Visibility Wind Dir Wind Speed Gust Speed Precip Events Conditions
12:54 AM 77.0 °F - 66.0 °F 69% 29.96 in 9.0 mi SE 13.8 mph 20.7 mph N/A   Clear
1:54 AM 75.9 °F - 64.0 °F 67% 29.97 in 9.0 mi SSE 10.4 mph - N/A   Partly Cloudy
2:54 AM 73.9 °F - 62.1 °F 66% 29.96 in 10.0 mi SE 10.4 mph - N/A   Mostly Cloudy
3:54 AM 73.0 °F - 60.1 °F 64% 29.96 in 10.0 mi SE 12.7 mph 19.6 mph N/A   Clear
4:54 AM 73.0 °F - 61.0 °F 66% 29.98 in 10.0 mi SSE 9.2 mph - N/A   Clear
5:54 AM 72.0 °F - 61.0 °F 68% 29.99 in 10.0 mi SSE 8.1 mph - N/A   Mostly Cloudy
6:54 AM 72.0 °F - 59.0 °F 64% 30.00 in 10.0 mi SE 6.9 mph - N/A   Mostly Cloudy
7:54 AM 72.0 °F - 57.9 °F 61% 30.01 in 10.0 mi ESE 5.8 mph - N/A   Overcast
8:54 AM 73.9 °F - 63.0 °F 68% 30.01 in 7.0 mi SE 12.7 mph - N/A   Overcast
9:54 AM 77.0 °F - 63.0 °F 62% 30.01 in 7.0 mi SSE 15.0 mph 19.6 mph N/A   Overcast
10:54 AM 79.0 °F - 63.0 °F 58% 30.04 in 8.0 mi SE 12.7 mph - N/A   Mostly Cloudy
11:54 AM 81.0 °F 82.2 °F 63.0 °F 54% 30.05 in 8.0 mi SSE 12.7 mph 20.7 mph N/A   Clear
12:54 PM 84.0 °F 85.4 °F 64.0 °F 51% 30.04 in 9.0 mi SE 13.8 mph 19.6 mph N/A   Clear
1:54 PM 84.9 °F 84.8 °F 60.1 °F 43% 30.05 in 10.0 mi SSE 15.0 mph 18.4 mph N/A   Clear
2:54 PM 87.1 °F 87.0 °F 61.0 °F 41% 30.04 in 10.0 mi SSE 12.7 mph 19.6 mph N/A   Clear
3:54 PM 87.1 °F 86.5 °F 59.0 °F 39% 30.04 in 10.0 mi SSE 12.7 mph - N/A   Clear
4:54 PM 87.1 °F 87.0 °F 61.0 °F 41% 30.03 in 10.0 mi SSE 11.5 mph 17.3 mph N/A   Clear
5:54 PM 87.1 °F 87.0 °F 61.0 °F 41% 30.02 in 10.0 mi SSE 9.2 mph - N/A   Clear
6:54 PM 84.9 °F 85.0 °F 61.0 °F 44% 30.03 in 10.0 mi SE 13.8 mph - N/A   Clear
7:54 PM 82.0 °F 83.1 °F 63.0 °F 52% 30.04 in 8.0 mi SE 6.9 mph - N/A   Clear
8:54 PM 75.9 °F - 64.0 °F 67% 30.07 in 7.0 mi Calm Calm - N/A   Clear
9:54 PM 73.0 °F - 63.0 °F 71% 30.10 in 8.0 mi ESE 6.9 mph - N/A   Clear
10:54 PM 69.1 °F - 64.0 °F 84% 30.12 in 6.0 mi Calm Calm - N/A   Haze
11:54 PM 66.9 °F - 63.0 °F 87% 30.13 in 6.0 mi Variable 3.5 mph - N/A   Clear